カタログに戻る

OPS 9751

運用中軍事MEO
NORAD 10016·PAYLOAD·🇺🇸 United States

打ち上げ May 23, 1977 から Cape Canaveral Space Force Station

Loading…

次のパス (今後24時間)

TLE

最新Source: Space-Track

元期: Sep 13, 2026, 19:16 UTC

1 10016U 77038A   26256.80334818 -.00000182  00000-0  00000-0 0  9991
2 10016   7.2717 332.2219 1304898 133.7525 251.7849  1.00232315 27344

AllMySatでOPS 9751をリアルタイム追跡

Download on the App Store